METEOR 2-5 DEB

Satellite information

Favourite Embed

Satellite Type and Status

DEBRISIN ORBIT

Key statistics

Satellite METEOR 2-5 DEB at a glance.

Uptime

16687

Days in orbit

Revolutions

≈ 14.3

Per day

Orbit

LEO

Low Earth Orbit

Inclination

81.2

Latest

Satellite identification and parameters

Extended collection of information and parameters for METEOR 2-5 DEB.

Object identification

Identified? True

Debris? True

Object name: METEOR 2-5 DEB

International designator: 1979-095CP

Object number (NORAD): 45507

Object ID (CCSDS): 45507

Country: COMMONWEALTH OF INDEPENDENT STATES (CIS)

Current information (Y/N): Y

RCS size: SMALL

Orbital parameters

Period: 100.428 minutes

Inclination: 81.1986 deg

SMA: 7156.999 km

Apoapsis: 786.595 km

Periapsis: 771.132 km

RAAN: 136.7687 deg

Eccentricy: 0.0010803

Argument of periapsis: 352.3686 deg

Mean anomaly: 7.7331 deg

Mean motion: 14.33858729 rev/day

Mean motion (dot): 0.00004679 rev/day2

B* drag term: 0.0016756 1/REarth

Two-line elements (TLE)

Creation date: July 1, 2025, 6:11 p.m.

Reference frame: TEME

Reference center: EARTH

Epoch: July 1, 2025, 3:03 a.m. UTC

TLE line 0: 0 METEOR 2-5 DEB

TLE line 1: 1 45507U 79095CP 25182.12735194 .00004679 00000-0 16756-2 0 9994

TLE line 2: 2 45507 81.1986 136.7687 0010803 352.3686 7.7331 14.33858729546779

Live tracking on map

Real-time ground track for satellite METEOR 2-5 DEB.

In-orbit conjunctions

A list of the most updated potential collisions computed for object METEOR 2-5 DEB.

Target Orbit TCA Probability of collision Miss distance Type
OSCAR 19 (LUSAT) SSO 2024-11-07 20:11:38 0.0001075276 721.0 (m) PAYLOAD

Associated space launch

Second generation soviet meteorological satellite

METEOR 2-5 DEB was lifted into orbit during the mission ‘Vostok 8A92M | Meteor-2 5’, on board a Vostok 8A92M space rocket.

The launch took place on Oct. 31, 1979, 9:25 a.m. from 43/4 (43R).

For more information about the launch, click the button.

Launch to space Vostok 8A92M | Meteor-2 5
Vostok 8A92M | Meteor-2 5

Agency: N/A

Status: Launch Successful

Launch date: Oct. 31, 1979, 9:25 a.m. UTC

Rocket: Vostok 8A92M

Launch pad: 43/4 (43R)

Location: Plesetsk Cosmodrome, Russian Federation

...

Latest news about this satellite

There are no fresh news available about this satellite. Check back as we update our databases every day.


Newsletter sign-up

Weekly statistics, charts and insights to help you stay on top of the space industry.